Overview Statistics Trail Chart Weather Telemetry Raw packets
 

This is the latest recevied weather packets stored in our database for station/object EA5GTE-12. If no packets are shown the sender has not sent any weather packets the latest 10 day(s).

<< 7 8 9 10 11 12 13 >>
Time Temp. Humidity Pressure Rain* Wind** Luminosity Snow
1788414824 18.33° C 100% 945.9 hPa - - - -
1788413924 18.33° C 100% 945.7 hPa - - - -
1788413024 18.33° C 100% 945.7 hPa - - - -
1788412124 18.33° C 100% 945.4 hPa - - - -
1788411224 18.89° C 100% 945.2 hPa - - - -
1788410324 19.44° C 100% 945 hPa - - - -
1788408522 20° C 100% 945.1 hPa - - - -
1788407622 20.56° C 100% 945 hPa - - - -
1788406722 20.56° C 100% 945 hPa - - - -
1788405822 20.56° C 100% 944.9 hPa - - - -
1788404922 21.11° C 100% 945.1 hPa - - - -
1788404022 21.11° C 100% 945.1 hPa - - - -
1788403122 20.56° C 100% 945.2 hPa - - - -
1788402222 20.56° C 100% 945.1 hPa - - - -
1788401322 20.56° C 100% 945.1 hPa - - - -
1788400422 20.56° C 100% 945.1 hPa - - - -
1788399522 21.67° C 100% 945 hPa - - - -
1788398622 22.22° C 95% 945 hPa - - - -
1788397722 22.22° C 94% 945.1 hPa - - - -
1788396822 22.78° C 93% 945.1 hPa - - - -
1788395922 22.78° C 92% 945.2 hPa - - - -
1788395022 23.33° C 92% 945.2 hPa - - - -
1788394121 23.33° C 92% 945.2 hPa - - - -
1788393221 23.33° C 88% 945.3 hPa - - - -
1788392321 23.89° C 85% 945.1 hPa - - - -

* Rain since midnight (hover to see other rain measurements)
** Current wind speed in m/s (hover to see current wind gust speed)